Ely, MN

6:45 PM CST on February 23, 2017 (GMT -0600)
Ely Municipal

Weather History for KELO - May, 2014

Change the Weather History Date:

Tuesday, May 6, 2014

  Actual Average Record
Temperature  
Mean Temperature 39 °F -  
Max Temperature 48 °F 57 °F 89 °F (2016)
Min Temperature 30 °F 33 °F 26 °F (2008)
Degree Days  
Heating Degree Days 26    
Moisture  
Dew Point 34 °F    
Average Humidity 75    
Maximum Humidity 100    
Minimum Humidity 57    
Precipitation  
Precipitation 0.03 in - - ()
Sea Level Pressure  
Sea Level Pressure 30.02 in    
Wind  
Wind Speed 5 mph (ESE)    
Max Wind Speed 13 mph    
Max Gust Speed 17 mph    
Visibility 10 miles    
Events Rain    
Averages and records for this station are not official NWS values.
T = Trace of Precipitation, MM = Missing Value Source: NWS Daily Summary

Daily Weather History Graph

Daily Weather History Graph

Search for Another Location

Airport or City:

Trip Planner

Search our weather history database for the weather conditions in past years. The results will help you decide how hot, cold, wet, or windy it might be!

Date:

Astronomy

May. 06, 2014 Rise Set
Actual Time 5:41 AM CDT 8:27 PM CDT
Civil Twilight 5:06 AM CDT 9:02 PM CDT
Nautical Twilight 4:21 AM CDT 9:47 PM CDT
Astronomical Twilight 3:28 AM CDT 10:41 PM CDT
Moon 12:03 PM CDT (5/6) 1:41 AM CDT (5/6)
Length of Visible Light 15h 56m
Length of Day
14h 45m
Waxing Crescent, 46% of the Moon is Illuminated
May 6
Waxing Crescent
May 6
First Quarter
May 14
Full
May 21
Last Quarter
May 28
New

Hourly Weather History & Observations

Time (CDT) Temp. Windchill Dew Point Humidity Pressure Visibility Wind Dir Wind Speed Gust Speed Precip Events Conditions
12:12 AM 35.6 °F - 32.0 °F 87% 30.05 in 10.0 mi Calm Calm - N/A   Overcast
12:33 AM 35.6 °F - 32.0 °F 87% 30.06 in 10.0 mi Calm Calm - N/A   Scattered Clouds
12:52 AM 32.0 °F - 30.2 °F 93% 30.06 in 10.0 mi Calm Calm - N/A   Clear
1:13 AM 30.2 °F - 30.2 °F 100% 30.05 in 10.0 mi Calm Calm - N/A   Clear
1:33 AM 30.2 °F - 28.4 °F 93% 30.05 in 10.0 mi Calm Calm - N/A   Mostly Cloudy
1:52 AM 30.2 °F - 30.2 °F 100% 30.04 in 10.0 mi Calm Calm - N/A   Overcast
2:13 AM 33.8 °F 30.8 °F 30.2 °F 87% 30.03 in 10.0 mi SE 3.5 mph - N/A   Overcast
2:32 AM 33.8 °F - 30.2 °F 87% 30.03 in 10.0 mi Calm Calm - N/A   Overcast
6:53 AM 35.6 °F - 32.0 °F 87% 30.03 in 10.0 mi Calm Calm - N/A   Overcast
7:13 AM 35.6 °F - 33.8 °F 93% 30.03 in 10.0 mi Calm Calm - N/A   Overcast
7:32 AM 37.4 °F 34.9 °F 33.8 °F 87% 30.03 in 10.0 mi East 3.5 mph - N/A   Overcast
7:53 AM 39.2 °F 37.0 °F 33.8 °F 81% 30.03 in 10.0 mi ESE 3.5 mph - N/A   Overcast
8:13 AM 39.2 °F 37.0 °F 35.6 °F 87% 30.04 in 10.0 mi ESE 3.5 mph - N/A   Overcast
9:13 AM 42.8 °F 38.6 °F 33.8 °F 70% 30.04 in 10.0 mi SE 6.9 mph - N/A   Scattered Clouds
9:32 AM 44.6 °F 41.4 °F 33.8 °F 66% 30.05 in 10.0 mi SE 5.8 mph - N/A   Mostly Cloudy
9:53 AM 44.6 °F 40.2 °F 33.8 °F 66% 30.04 in 10.0 mi ESE 8.1 mph - N/A   Overcast
10:13 AM 46.4 °F 41.9 °F 33.8 °F 62% 30.04 in 10.0 mi ESE 9.2 mph - N/A   Overcast
10:32 AM 46.4 °F 41.1 °F 33.8 °F 62% 30.03 in 10.0 mi SE 11.5 mph - N/A   Mostly Cloudy
10:53 AM 46.4 °F 41.5 °F 33.8 °F 62% 30.03 in 10.0 mi SE 10.4 mph - N/A   Clear
11:13 AM 48.2 °F - 33.8 °F 58% 30.03 in 10.0 mi SE 11.5 mph - N/A   Clear
11:33 AM 48.2 °F - 33.8 °F 58% 30.03 in 10.0 mi SE 8.1 mph - N/A   Scattered Clouds
11:52 AM 48.2 °F - 33.8 °F 58% 30.03 in 10.0 mi ESE 10.4 mph - N/A   Scattered Clouds
12:13 PM 48.2 °F - 35.6 °F 62% 30.04 in 10.0 mi SSE 10.4 mph - N/A Rain Light Rain
12:33 PM 46.4 °F 41.9 °F 37.4 °F 71% 30.04 in 10.0 mi South 9.2 mph - N/A   Drizzle
12:52 PM 44.6 °F 40.2 °F 37.4 °F 76% 30.05 in 10.0 mi South 8.1 mph - N/A Rain Light Rain
1:13 PM 44.6 °F 39.7 °F 37.4 °F 76% 30.05 in 10.0 mi SSE 9.2 mph - 0.01 in   Light Drizzle
1:33 PM 44.6 °F 39.7 °F 39.2 °F 81% 30.04 in 10.0 mi ESE 9.2 mph - 0.01 in Rain Light Rain
1:52 PM 42.8 °F 38.6 °F 39.2 °F 87% 30.04 in 7.0 mi ESE 6.9 mph - 0.02 in Rain Light Rain
2:13 PM 42.8 °F 38.0 °F 39.2 °F 87% 30.03 in 10.0 mi East 8.1 mph - N/A Rain Light Rain
2:33 PM 44.6 °F 40.2 °F 39.2 °F 81% 30.03 in 10.0 mi East 8.1 mph - 0.01 in Rain Light Rain
2:52 PM 42.8 °F 37.5 °F 39.2 °F 87% 30.02 in 10.0 mi East 9.2 mph - 0.01 in Rain Light Rain
3:13 PM 42.8 °F 38.0 °F 39.2 °F 87% 30.02 in 10.0 mi East 8.1 mph - N/A Rain Light Rain
3:33 PM 42.8 °F 38.6 °F 39.2 °F 87% 30.01 in 10.0 mi East 6.9 mph - N/A   Light Drizzle
3:52 PM 42.8 °F 37.0 °F 39.2 °F 87% 30.01 in 10.0 mi East 10.4 mph - N/A   Scattered Clouds
4:13 PM 44.6 °F 41.4 °F 39.2 °F 81% 30.00 in 10.0 mi East 5.8 mph - N/A   Mostly Cloudy
4:32 PM 44.6 °F 41.4 °F 39.2 °F 81% 30.00 in 10.0 mi East 5.8 mph - N/A   Scattered Clouds
4:53 PM 44.6 °F 40.2 °F 39.2 °F 81% 30.00 in 10.0 mi East 8.1 mph - N/A   Clear
5:13 PM 44.6 °F 40.7 °F 39.2 °F 81% 29.99 in 10.0 mi East 6.9 mph - N/A   Clear
5:32 PM 44.6 °F 40.7 °F 39.2 °F 81% 29.99 in 10.0 mi East 6.9 mph - N/A   Scattered Clouds
5:53 PM 44.6 °F 39.7 °F 39.2 °F 81% 29.98 in 10.0 mi East 9.2 mph - N/A   Mostly Cloudy
6:13 PM 44.6 °F 39.2 °F 37.4 °F 76% 29.98 in 10.0 mi East 10.4 mph - N/A   Overcast
6:32 PM 44.6 °F 39.7 °F 37.4 °F 76% 29.99 in 10.0 mi East 9.2 mph 16.1 mph N/A   Overcast
6:53 PM 44.6 °F 38.4 °F 35.6 °F 71% 29.98 in 10.0 mi East 12.7 mph 17.3 mph N/A   Scattered Clouds
7:12 PM 44.6 °F 39.7 °F 35.6 °F 71% 29.99 in 10.0 mi East 9.2 mph - N/A   Scattered Clouds
7:33 PM 44.6 °F 40.7 °F 35.6 °F 71% 30.00 in 10.0 mi East 6.9 mph - N/A   Overcast
7:53 PM 44.6 °F 41.4 °F 35.6 °F 71% 29.99 in 10.0 mi East 5.8 mph - N/A   Overcast
8:12 PM 44.6 °F 42.2 °F 33.8 °F 66% 30.00 in 10.0 mi East 4.6 mph - N/A   Mostly Cloudy
8:33 PM 42.8 °F 38.6 °F 33.8 °F 70% 30.00 in 10.0 mi East 6.9 mph - N/A   Mostly Cloudy
8:53 PM 42.8 °F 40.1 °F 33.8 °F 70% 30.00 in 10.0 mi East 4.6 mph - N/A   Overcast
9:12 PM 42.8 °F 39.3 °F 32.0 °F 66% 29.99 in 10.0 mi East 5.8 mph - N/A   Mostly Cloudy
9:33 PM 42.8 °F 37.5 °F 30.2 °F 61% 29.99 in 10.0 mi East 9.2 mph - N/A   Mostly Cloudy
9:53 PM 42.8 °F 37.0 °F 30.2 °F 61% 29.99 in 10.0 mi ENE 10.4 mph - N/A   Overcast
10:12 PM 42.8 °F 38.6 °F 30.2 °F 61% 29.98 in 10.0 mi East 6.9 mph - N/A   Overcast
10:33 PM 42.8 °F 38.0 °F 28.4 °F 57% 29.98 in 10.0 mi East 8.1 mph - N/A   Overcast
10:53 PM 42.8 °F 38.6 °F 28.4 °F 57% 29.99 in 10.0 mi East 6.9 mph - N/A   Overcast
11:13 PM 42.8 °F 37.5 °F 28.4 °F 57% 29.99 in 10.0 mi East 9.2 mph - N/A   Overcast
11:33 PM 42.8 °F 38.6 °F 28.4 °F 57% 29.99 in 10.0 mi East 6.9 mph - N/A   Overcast
11:53 PM 42.8 °F 38.0 °F 28.4 °F 57% 29.98 in 10.0 mi East 8.1 mph - N/A   Overcast